Wetbulb
28.99 30.54 29.84 29.24 29.15 29.39 24.12 28.15 23.62 26.96 26.86 28.89 30.55 30.03 29.01 29.42 30.18 30.67 30.64 31.20 29.41 28.71 28.39 28.62 29.19 30.01 30.96 31.87 32.48 33.12 33.07 33.40 33.70 34.89 35.85 36.47 36.83 38.31 39.05 39.69 40.12 39.69 36.75 34.97
18.89 28.34 28.90 27.66 29.63 30.30 29.25 29.77 28.50 28.39 26.94 29.48 28.78 28.79 28.16 28.43 29.65 28.67 28.19 28.54 28.70 28.72 28.14 28.37 27.42 29.22 31.14 31.45 31.95 32.78 32.48 33.34 35.02 35.42 35.46 35.65 36.12 36.63 36.54 36.13 35.64 35.17 33.65 33.52
21.39 25.38 23.69 17.90 26.60 29.43 29.13 29.14 29.86 26.12 29.00 28.74 28.22 29.39 27.94 26.85 27.43 27.00 26.73 28.21 28.53 28.57 28.56 28.57 29.42 30.81 30.34 31.24 32.12 31.92 32.51 33.58 34.42 34.62 34.50 34.63 35.25 35.26 34.88 34.24 34.09 32.52 32.25 31.43
19.27 22.07 14.64 26.19 30.08 30.52 29.01 28.23 28.70 28.53 28.91 29.39 28.31 28.06 28.19 27.70 26.48 26.80 28.14 28.67 28.75 28.77 28.56 29.09 30.14 30.59 30.54 31.09 30.96 31.52 31.71 32.53 33.39 33.30 33.41 34.07 34.28 34.26 33.83 32.83 31.44 31.48 31.76 31.16
20.20 18.53 23.85 25.65 28.33 28.05 27.60 25.04 27.93 27.21 26.77 26.84 27.30 25.62 23.67 28.10 26.83 26.38 27.62 28.38 28.03 28.57 29.05 29.41 29.57 30.67 30.48 30.59 30.99 31.15 31.16 31.67 32.36 32.78 32.30 32.52 32.55 33.02 32.49 31.23 30.89 30.80 31.73 31.69
21.27 17.46 17.32 22.28 27.25 30.86 29.43 20.74 27.47 26.89 25.57 24.82 24.46 18.65 21.41 26.86 28.56 28.12 28.30 28.42 28.46 29.22 30.06 28.82 30.19 30.55 28.81 29.21 29.76 29.60 31.07 31.76 32.61 32.24 31.56 31.38 32.35 32.65 33.21 33.01 32.17 32.59 32.23 32.47
25.71 24.33 24.90 27.36 29.20 30.40 19.55 21.09 26.17 26.19 25.20 23.73 20.90 23.17 26.31 27.78 27.92 28.88 28.57 28.80 29.98 29.35 28.83 30.19 31.32 31.02 29.82 30.12 29.36 31.35 32.22 32.02 31.55 31.61 31.30 31.85 31.89 32.07 31.98 31.74 31.81 30.79 30.77 31.63
26.61 23.88 20.41 29.01 27.94 25.17 25.54 25.77 26.44 25.51 25.02 24.82 24.72 25.94 26.47 27.16 26.88 27.78 27.89 29.00 29.81 28.61 29.16 30.83 31.34 30.18 29.12 28.64 30.76 31.43 31.17 30.57 30.47 30.94 31.35 31.96 30.72 30.73 30.84 30.51 29.07 28.56 28.43 29.07
27.02 26.44 27.90 27.34 27.27 27.37 27.37 25.43 24.70 24.68 25.46 25.00 24.97 24.97 25.79 25.74 25.79 26.12 27.05 28.18 29.10 27.54 28.79 30.22 30.63 29.12 27.66 29.08 30.84 30.45 29.57 29.65 29.94 30.31 30.42 31.03 29.98 29.55 29.21 29.05 27.67 27.19 27.75 27.87
26.30 25.28 25.11 26.07 25.99 26.80 26.44 25.32 26.15 26.61 26.14 25.87 24.46 25.23 24.54 24.85 25.24 26.06 27.34 27.41 28.15 27.37 28.08 28.58 30.29 29.89 28.12 29.83 30.19 29.37 28.41 28.48 29.37 29.61 30.15 30.74 30.86 30.75 29.86 28.99 28.21 27.98 27.75 27.64
22.57 23.22 24.07 23.78 24.77 25.38 25.88 26.74 26.01 25.58 25.32 25.46 24.95 24.78 24.67 25.13 25.06 26.32 27.22 28.16 28.45 27.94 28.07 28.15 28.28 28.13 28.68 29.22 29.31 28.61 28.66 28.61 28.47 29.02 28.89 29.08 29.83 29.93 29.85 30.45 30.73 28.96 29.15 29.22
21.85 25.38 24.07 22.93 24.57 26.26 25.11 24.87 25.24 24.14 23.50 25.40 25.32 24.83 25.35 25.43 26.11 26.15 26.25 27.41 27.06 27.19 25.61 26.83 27.57 27.93 28.81 29.74 29.15 27.85 27.16 27.66 28.03 28.62 28.47 28.77 28.79 28.84 33.38 34.34 35.36 35.41 35.40 34.00
23.87 25.82 25.85 25.73 26.12 25.84 24.79 24.97 24.24 24.62 25.36 24.46 25.14 24.94 24.44 24.81 25.09 28.48 27.48 26.11 26.07 26.34 26.68 27.23 27.31 27.69 28.77 29.22 28.94 27.89 26.90 27.29 27.74 28.80 27.90 27.64 27.76 27.46 26.31 29.70 33.41 33.67 34.05 34.19
27.06 26.60 24.06 24.90 23.69 25.81 25.48 24.99 26.41 25.02 24.96 24.66 24.30 24.29 23.91 23.89 25.90 25.22 25.06 26.42 26.81 26.98 27.04 27.06 27.10 27.03 28.84 29.21 28.61 28.08 27.88 30.64 28.31 27.61 27.27 27.29 27.49 27.53 27.55 27.09 26.76 27.85 32.09 32.78
25.28 25.93 24.60 25.30 24.55 22.81 24.06 24.69 23.87 22.78 22.73 22.74 23.72 23.31 23.83 23.27 23.93 24.82 26.22 26.90 27.12 26.46 26.04 26.55 26.71 27.06 29.12 29.36 28.67 27.98 27.97 27.95 28.10 28.73 29.26 29.73 29.58 29.28 29.00 28.61 28.34 28.20 28.68 30.76
25.47 24.77 24.32 22.76 22.42 22.46 22.40 22.69 21.29 21.57 22.18 22.44 22.53 23.42 24.35 24.64 24.36 25.30 26.08 26.31 24.54 24.62 26.04 26.14 26.47 28.22 29.28 29.18 28.36 28.16 28.71 31.09 31.46 30.00 29.64 29.14 29.14 28.83 28.74 28.68 28.58 28.48 28.26 28.41
22.91 20.84 21.03 20.68 22.38 21.25 21.62 22.46 22.13 22.03 22.22 21.93 22.55 24.50 24.48 24.05 24.50 24.20 24.82 25.80 25.54 25.49 26.44 27.21 27.19 28.60 29.04 29.33 29.29 29.90 29.56 29.41 31.62 30.44 29.18 28.39 27.89 27.17 26.31 26.17 25.88 25.90 27.01 28.89
24.44 23.22 22.52 21.72 21.84 21.20 21.32 22.15 22.48 22.45 22.21 23.56 24.68 24.21 23.29 23.27 23.08 23.89 24.51 24.84 24.78 25.62 26.49 27.23 27.60 28.83 30.36 30.07 29.75 30.18 30.41 28.34 26.84 24.90 24.83 23.81 24.87 23.88 23.37 23.03 22.64 22.80 23.38 24.80
24.37 23.41 22.20 23.88 23.08 22.64 22.18 22.40 22.73 23.14 23.21 23.36 22.85 22.67 23.55 23.90 23.80 24.05 25.05 24.51 22.96 22.53 25.04 26.93 29.37 30.02 29.49 29.72 30.90 28.93 25.93 24.25 23.49 23.29 23.28 24.42 22.46 22.36 22.54 22.06 22.23 22.97 23.35 23.85
23.62 23.58 23.82 23.13 24.45 23.88 22.50 23.04 22.91 22.28 23.03 23.05 22.91 22.64 22.57 23.14 25.29 24.56 23.30 22.02 23.24 24.27 26.35 27.09 28.79 29.06 28.69 29.23 29.47 25.08 24.38 23.14 22.37 22.20 22.13 21.89 21.30 21.60 21.71 22.83 22.73 22.64 22.84 23.86
22.64 23.08 23.41 24.02 23.18 23.97 23.70 22.79 21.94 21.36 22.57 22.98 22.37 22.82 24.79 24.25 22.99 22.92 21.64 21.01 23.58 26.08 27.63 29.12 29.05 28.38 29.25 27.96 25.18 23.88 23.21 22.07 21.59 21.02 20.83 20.64 20.65 20.71 21.19 21.57 22.38 22.85 23.40 23.99
21.38 21.73 22.51 22.79 21.86 21.58 22.32 22.37 22.33 22.92 22.39 22.47 24.76 23.98 22.45 22.22 22.26 22.53 23.53 22.56 25.00 28.60 28.46 28.75 26.26 29.51 27.84 26.65 23.71 22.90 22.27 21.67 21.35 20.25 19.95 20.41 19.99 20.01 20.37 21.31 22.71 23.45 24.41 24.24
22.40 22.52 22.93 21.78 21.25 21.63 22.12 22.09 22.29 22.66 24.16 24.20 22.85 21.95 21.75 23.09 22.28 19.92 19.90 23.99 25.66 28.01 27.15 25.41 28.95 28.87 27.00 23.56 22.66 21.84 21.19 20.91 20.81 20.02 19.37 20.65 19.80 20.46 21.16 22.25 23.78 24.05 24.71 24.35
22.26 22.02 21.96 23.31 21.81 20.54 20.31 22.19 22.61 24.16 23.01 22.63 22.54 22.79 22.84 20.64 21.04 23.43 24.41 26.65 28.50 28.88 25.68 26.95 27.87 27.23 25.28 22.50 21.57 20.95 20.49 21.30 21.43 20.55 20.40 23.22 20.76 21.55 22.17 22.87 24.30 24.38 24.62 24.74
21.67 21.20 20.84 20.40 20.49 21.64 22.42 23.01 20.25 19.15 20.09 20.90 22.08 21.76 22.01 23.10 22.32 23.20 24.82 26.04 27.29 26.04 24.16 25.98 26.88 25.23 22.64 21.58 20.94 20.80 21.11 22.13 23.52 21.89 21.30 21.68 21.52 22.43 23.46 23.90 25.27 24.80 24.49 24.81
19.99 19.94 20.56 21.39 21.31 20.80 22.44 21.00 19.40 20.87 20.84 18.88 20.18 21.30 21.79 23.50 24.63 25.48 25.85 26.11 24.63 24.00 23.02 23.47 24.39 21.77 20.13 21.37 19.85 19.75 19.09 22.11 20.84 21.41 22.30 22.41 22.62 23.02 23.58 24.16 24.72 25.22 25.51 25.63
19.93 22.48 19.49 19.58 21.29 21.89 20.74 22.29 20.02 18.37 20.09 20.60 19.50 21.12 22.67 24.14 24.76 25.81 24.69 22.90 22.82 22.64 22.00 21.62 22.08 21.27 20.93 21.38 22.47 23.17 23.65 24.15 25.74 23.39 21.88 21.83 22.47 23.27 24.37 25.09 25.00 24.65 24.58 24.33
MSLP
1019.25 1019.15 1019.15 1019.19 1019.50 1020.15 1020.73 1020.58 1021.25 1020.57 1021.06 1021.14 1021.68 1022.46 1023.11 1023.61 1023.84 1024.00 1024.22 1024.54 1024.76 1024.87 1024.76 1024.74 1024.61 1024.15 1023.72 1023.38 1023.06 1022.72 1022.48 1022.31 1021.97 1021.40 1020.93 1020.47 1020.02 1019.50 1018.87 1018.20 1017.86 1017.67 1017.54 1017.29
1020.16 1019.74 1019.65 1019.64 1019.62 1019.71 1020.06 1020.19 1020.34 1020.64 1021.03 1020.99 1022.07 1022.82 1023.41 1023.65 1023.67 1023.89 1024.23 1024.51 1024.76 1024.86 1024.85 1024.78 1024.61 1024.22 1023.76 1023.34 1022.94 1022.59 1022.33 1021.90 1021.34 1020.89 1020.43 1019.93 1019.46 1018.91 1018.34 1017.86 1017.40 1017.05 1016.81 1016.56
1020.86 1020.45 1020.15 1019.98 1018.68 1018.58 1018.90 1019.27 1019.62 1020.52 1020.66 1021.58 1022.55 1023.11 1023.54 1023.88 1024.05 1024.40 1024.60 1024.75 1024.83 1024.71 1024.67 1024.50 1024.17 1023.77 1023.50 1023.04 1022.55 1022.32 1021.87 1021.34 1020.72 1020.16 1019.74 1019.25 1018.73 1018.25 1017.83 1017.32 1016.91 1016.52 1016.11 1015.79
1021.35 1021.03 1020.25 1018.20 1017.86 1017.96 1018.93 1019.81 1020.16 1020.65 1021.41 1022.10 1022.76 1023.29 1023.62 1023.88 1024.32 1024.53 1024.59 1024.63 1024.59 1024.49 1024.36 1024.11 1023.66 1023.33 1022.84 1022.46 1022.03 1021.56 1021.06 1020.56 1019.98 1019.50 1019.04 1018.41 1018.02 1017.59 1017.11 1016.54 1016.15 1015.71 1015.28 1014.95
1020.93 1020.96 1019.40 1018.46 1018.28 1018.58 1018.66 1020.68 1020.99 1021.52 1022.34 1022.90 1023.31 1023.62 1023.86 1024.01 1024.08 1024.24 1024.33 1024.16 1024.03 1023.80 1023.48 1023.09 1022.76 1022.30 1021.90 1021.56 1021.24 1020.83 1020.33 1019.70 1019.22 1018.76 1018.28 1017.71 1017.26 1016.70 1016.33 1015.89 1015.29 1014.70 1014.25 1014.00
1020.71 1020.40 1019.27 1018.25 1018.10 1018.26 1018.73 1020.64 1021.40 1021.89 1022.72 1023.30 1023.82 1024.41 1024.38 1024.10 1024.16 1024.25 1024.11 1023.95 1023.61 1023.08 1022.72 1022.56 1022.19 1021.84 1021.42 1020.95 1020.41 1019.92 1019.35 1018.70 1018.09 1017.73 1017.38 1016.88 1016.38 1015.77 1015.22 1014.70 1014.25 1013.82 1013.26 1012.89
1019.55 1019.40 1018.51 1018.01 1018.24 1018.52 1019.86 1021.02 1021.41 1022.13 1022.92 1023.59 1024.10 1024.20 1024.18 1024.16 1024.08 1023.87 1023.67 1023.31 1022.78 1022.48 1022.28 1021.98 1021.54 1021.18 1020.77 1020.24 1019.76 1018.98 1018.29 1017.75 1017.19 1016.71 1016.36 1015.89 1015.28 1014.76 1014.25 1013.79 1013.30 1012.84 1012.41 1011.84
1019.08 1019.25 1018.81 1017.96 1018.77 1019.42 1020.09 1021.03 1021.68 1022.43 1023.06 1023.48 1023.71 1023.84 1023.95 1024.01 1023.89 1023.57 1023.29 1022.86 1022.49 1022.18 1021.75 1021.22 1020.82 1020.59 1020.12 1019.55 1018.67 1018.03 1017.44 1016.94 1016.39 1015.78 1015.23 1014.67 1014.33 1013.74 1013.24 1012.85 1012.37 1011.91 1011.50 1011.03
1018.08 1018.19 1018.09 1018.61 1018.86 1019.57 1020.16 1021.03 1021.92 1022.41 1022.80 1023.12 1023.55 1023.81 1023.73 1023.69 1023.52 1023.13 1022.69 1022.31 1021.84 1021.67 1020.97 1020.35 1020.06 1019.79 1019.39 1018.41 1017.77 1017.15 1016.70 1016.19 1015.57 1014.84 1014.35 1013.88 1013.38 1012.74 1012.26 1011.89 1011.51 1010.98 1010.60 1010.20
1018.17 1018.90 1019.04 1019.43 1019.95 1020.20 1020.66 1021.27 1021.77 1022.21 1022.65 1023.04 1023.46 1023.53 1023.49 1023.27 1022.90 1022.56 1022.17 1021.73 1021.22 1020.86 1020.39 1019.73 1019.29 1018.92 1018.55 1017.80 1017.10 1016.49 1015.97 1015.56 1014.89 1014.22 1013.54 1012.95 1012.43 1011.91 1011.28 1010.78 1010.40 1009.96 1009.57 1009.20
1018.57 1019.29 1019.86 1020.26 1020.41 1020.79 1021.20 1021.56 1021.95 1022.21 1022.55 1022.86 1022.97 1022.91 1022.86 1022.59 1022.31 1021.94 1021.46 1020.98 1020.58 1020.28 1019.87 1019.28 1018.83 1018.30 1017.76 1017.22 1016.72 1016.05 1015.63 1014.95 1014.25 1013.67 1012.95 1012.19 1011.61 1011.00 1010.42 1009.86 1009.51 1008.91 1008.44 1008.18
1018.15 1018.42 1019.21 1020.14 1020.68 1021.01 1021.44 1021.83 1022.16 1022.34 1022.49 1022.62 1022.65 1022.61 1022.38 1022.07 1021.77 1021.36 1020.88 1020.52 1020.19 1019.68 1019.26 1018.56 1018.14 1017.62 1017.11 1016.75 1016.29 1015.76 1014.99 1014.35 1013.80 1013.08 1012.30 1011.61 1010.84 1009.89 1009.59 1008.95 1008.40 1008.00 1007.48 1007.21
1018.38 1018.91 1019.28 1020.01 1020.70 1021.09 1021.48 1021.76 1021.94 1022.05 1022.25 1022.43 1022.37 1022.23 1022.04 1021.69 1021.25 1020.87 1020.32 1020.00 1019.56 1019.06 1018.49 1017.89 1017.40 1017.04 1016.67 1016.15 1015.70 1015.19 1014.54 1013.84 1013.11 1012.41 1011.66 1010.94 1010.20 1009.40 1008.44 1007.89 1007.46 1006.93 1006.48 1005.95
1018.47 1019.10 1020.13 1020.47 1020.91 1021.20 1021.31 1021.59 1021.86 1021.96 1021.99 1021.99 1021.80 1021.76 1021.59 1021.32 1020.74 1020.36 1019.88 1019.52 1019.07 1018.56 1017.89 1017.40 1017.00 1016.57 1016.03 1015.49 1015.01 1014.48 1013.90 1013.19 1012.37 1011.66 1011.04 1010.33 1009.54 1008.75 1008.03 1007.27 1006.36 1005.69 1005.36 1004.94
1019.16 1019.39 1019.88 1020.38 1020.80 1021.08 1021.28 1021.45 1021.60 1021.73 1021.75 1021.67 1021.53 1021.38 1021.24 1020.88 1020.41 1020.00 1019.49 1018.99 1018.52 1018.12 1017.58 1017.11 1016.60 1015.99 1015.42 1014.92 1014.40 1013.81 1013.10 1012.29 1011.61 1010.88 1010.12 1009.37 1008.59 1007.85 1007.12 1006.41 1005.71 1004.96 1004.34 1003.85
1019.51 1019.89 1020.42 1020.82 1021.19 1021.46 1021.64 1021.77 1021.85 1021.80 1021.78 1021.54 1021.35 1021.11 1020.79 1020.39 1019.95 1019.47 1019.02 1018.63 1018.27 1017.75 1017.19 1016.71 1016.17 1015.45 1014.91 1014.40 1013.80 1013.10 1012.31 1011.59 1010.80 1009.93 1009.15 1008.37 1007.63 1006.87 1006.12 1005.51 1004.88 1004.25 1003.65 1003.04
1019.76 1020.25 1020.53 1020.90 1021.16 1021.41 1021.68 1021.73 1021.68 1021.59 1021.36 1021.15 1020.83 1020.46 1020.09 1019.73 1019.54 1019.00 1018.63 1018.22 1017.85 1017.37 1016.83 1016.25 1015.54 1014.97 1014.47 1013.90 1013.21 1012.43 1011.69 1010.84 1010.05 1009.29 1008.73 1008.12 1007.45 1006.78 1006.34 1005.72 1005.03 1004.39 1003.71 1003.07
1019.59 1019.94 1020.27 1020.67 1021.11 1021.26 1021.31 1021.30 1021.25 1021.08 1020.96 1020.59 1020.42 1020.07 1019.80 1019.52 1019.09 1018.61 1018.26 1017.83 1017.39 1016.91 1016.34 1015.70 1015.10 1014.48 1013.84 1013.29 1012.72 1011.98 1011.22 1010.80 1010.33 1009.80 1009.20 1008.53 1007.73 1007.29 1006.69 1005.98 1005.34 1004.61 1003.85 1003.14
1019.87 1020.15 1020.50 1020.90 1021.05 1021.09 1021.09 1021.03 1020.95 1020.74 1020.53 1020.35 1020.06 1019.77 1019.42 1019.11 1018.73 1018.36 1017.95 1017.53 1017.05 1016.41 1015.69 1015.17 1014.55 1013.95 1013.45 1012.93 1012.25 1011.87 1011.54 1011.12 1010.51 1009.90 1009.28 1008.50 1007.94 1007.35 1006.63 1005.95 1005.24 1004.50 1003.77 1003.01
1020.15 1020.46 1020.69 1020.82 1020.91 1020.94 1020.83 1020.67 1020.52 1020.42 1020.16 1019.87 1019.62 1019.33 1019.02 1018.65 1018.36 1017.99 1017.62 1017.24 1016.61 1016.08 1015.40 1014.77 1014.18 1013.70 1013.18 1012.65 1012.25 1012.13 1011.72 1011.23 1010.68 1010.02 1009.42 1008.76 1008.18 1007.45 1006.77 1006.02 1005.26 1004.53 1003.82 1003.09
1020.61 1020.67 1020.66 1020.59 1020.56 1020.60 1020.56 1020.29 1020.17 1019.92 1019.66 1019.42 1019.30 1019.00 1018.67 1018.22 1017.97 1017.61 1017.24 1016.69 1015.91 1015.50 1014.90 1014.36 1013.95 1013.43 1012.88 1012.67 1012.54 1012.27 1011.84 1011.34 1010.80 1010.32 1009.76 1009.14 1008.47 1007.77 1007.02 1006.22 1005.44 1004.71 1004.00 1003.32
1020.50 1020.54 1020.52 1020.50 1020.46 1020.29 1020.07 1019.82 1019.61 1019.43 1019.23 1019.09 1018.86 1018.60 1018.29 1017.95 1017.63 1017.18 1016.77 1016.47 1015.72 1015.23 1014.73 1014.24 1013.86 1013.29 1013.00 1012.88 1012.76 1012.41 1011.96 1011.49 1011.08 1010.62 1010.06 1009.50 1008.89 1008.14 1007.38 1006.59 1005.82 1005.10 1004.47 1003.90
1020.57 1020.52 1020.44 1020.28 1020.09 1019.89 1019.70 1019.50 1019.29 1019.14 1019.02 1018.82 1018.61 1018.34 1018.06 1017.65 1017.36 1017.06 1016.34 1015.87 1015.57 1015.01 1014.62 1014.28 1013.68 1013.40 1013.31 1013.29 1012.98 1012.59 1012.17 1011.74 1011.35 1010.91 1010.45 1009.87 1009.27 1008.59 1007.88 1007.13 1006.43 1005.76 1005.17 1004.68
1020.44 1020.32 1020.17 1019.89 1019.82 1019.73 1019.59 1019.30 1019.15 1019.04 1018.85 1018.62 1018.32 1017.98 1017.67 1017.28 1016.98 1016.63 1016.29 1015.80 1015.23 1014.73 1014.63 1014.32 1013.95 1013.80 1013.71 1013.55 1013.20 1012.85 1012.49 1012.05 1011.64 1011.21 1010.74 1010.19 1009.65 1009.05 1008.40 1007.73 1007.12 1006.60 1006.10 1005.59
1020.47 1020.34 1020.15 1019.97 1019.81 1019.60 1019.40 1019.17 1019.11 1018.89 1018.62 1018.33 1017.96 1017.66 1017.36 1017.02 1016.88 1016.27 1015.93 1015.47 1015.14 1014.94 1014.87 1014.63 1014.36 1014.28 1014.13 1013.91 1013.60 1013.23 1012.82 1012.38 1011.88 1011.58 1011.19 1010.72 1010.21 1009.63 1009.02 1008.48 1007.94 1007.50 1007.05 1006.57
1020.45 1020.33 1020.14 1019.91 1019.68 1019.49 1019.29 1019.10 1018.93 1018.67 1018.34 1018.06 1017.71 1017.37 1017.04 1016.65 1016.29 1015.92 1015.56 1015.39 1015.37 1015.27 1015.22 1015.06 1014.82 1014.82 1014.67 1014.34 1014.05 1013.66 1013.24 1012.86 1012.54 1012.20 1011.77 1011.32 1010.84 1010.33 1009.85 1009.38 1008.90 1008.41 1007.95 1007.50
1020.49 1020.16 1020.01 1019.74 1019.50 1019.35 1019.19 1018.83 1018.71 1018.50 1018.20 1017.89 1017.54 1017.09 1016.71 1016.29 1015.99 1015.68 1015.66 1015.74 1015.69 1015.67 1015.65 1015.55 1015.38 1015.28 1015.05 1014.75 1014.45 1014.13 1013.78 1013.36 1012.98 1012.74 1012.41 1012.05 1011.63 1011.21 1010.77 1010.34 1009.93 1009.51 1009.05 1008.61
Wind_Speed
3 2 2 4 4 8 8 7 8 6 8 9 9 8 7 6 5 5 5 6 4 4 6 6 7 7 7 6 6 7 7 6 7 8 9 10 9 12 12 9 11 12 10 8
4 2 5 5 6 9 8 7 8 4 4 2 5 6 6 5 5 6 5 5 5 5 5 6 6 6 6 7 7 6 7 9 10 10 11 11 12 13 11 11 11 10 9 8
4 2 1 4 14 16 6 5 7 9 6 7 6 6 5 4 5 5 1 4 6 6 7 7 7 7 7 8 7 7 8 10 11 11 11 12 12 12 13 11 11 9 8 7
3 3 4 1 2 3 7 5 3 7 7 7 6 5 5 5 6 5 5 6 6 6 7 8 7 7 8 7 7 8 9 10 11 11 12 13 13 13 13 11 10 10 10 9
6 4 5 2 5 6 6 2 1 8 7 6 4 3 1 3 2 3 6 7 8 8 7 7 8 9 8 9 10 11 12 13 13 12 13 14 15 15 13 12 12 10 9 10
3 5 8 3 3 3 5 2 6 7 6 5 4 1 4 3 4 7 8 7 8 9 9 7 11 10 9 10 10 11 13 14 14 12 13 15 15 15 14 13 13 11 11 10
6 4 6 4 5 3 6 4 6 6 6 6 4 5 4 5 6 6 7 9 9 9 9 10 11 10 12 12 13 14 15 15 14 13 14 14 14 14 14 13 13 12 11 12
3 4 8 6 4 7 4 5 7 6 6 4 4 3 5 7 8 9 10 10 10 9 10 11 10 9 13 14 15 15 15 15 15 15 12 12 15 14 14 13 12 12 11 11
6 2 3 2 5 5 5 7 5 6 4 3 3 5 7 7 8 8 10 10 8 7 11 11 10 9 13 15 14 14 13 15 14 14 13 15 15 14 12 11 10 10 9 9
5 1 4 6 5 5 5 6 6 6 5 4 5 7 7 7 7 7 8 9 9 8 11 14 13 11 8 13 13 13 13 13 13 15 17 14 12 12 11 11 10 10 9 9
3 4 6 2 4 7 6 6 4 2 2 4 5 8 7 8 7 9 10 10 9 10 12 14 10 11 10 10 11 14 15 14 14 12 13 13 12 11 10 11 12 11 10 9
4 8 4 5 7 6 6 4 4 3 3 5 5 8 7 10 9 8 10 10 9 10 8 11 11 12 12 13 12 13 14 12 11 12 11 11 12 12 18 23 26 26 27 21
5 4 3 9 7 5 6 4 3 3 5 6 5 7 6 9 7 14 11 10 10 12 11 12 12 14 13 13 12 13 13 14 11 14 11 12 12 12 13 14 25 26 26 27
7 8 5 5 6 7 4 1 3 4 4 6 7 5 8 9 12 10 10 11 11 13 13 13 14 14 14 14 13 13 13 22 13 11 11 11 12 12 12 12 13 12 17 21
6 5 6 6 4 2 2 3 6 6 7 7 6 7 7 10 11 11 10 11 12 12 12 12 14 15 14 13 13 14 13 11 12 12 11 14 12 12 11 12 12 12 12 15
6 7 6 3 1 2 3 5 5 7 7 7 7 8 9 9 10 11 11 11 11 11 13 13 13 14 13 13 14 12 12 22 21 12 11 12 12 12 12 12 12 11 10 12
6 2 1 2 4 4 5 6 7 7 7 7 8 10 10 10 11 10 10 10 10 11 12 13 14 13 12 12 13 11 11 12 22 12 10 10 10 10 10 10 9 9 9 10
4 3 3 3 4 6 7 6 7 7 6 7 9 9 9 10 11 11 10 9 8 11 12 11 10 12 13 13 12 10 9 9 9 9 9 9 9 8 8 8 8 9 9 9
4 4 3 5 6 7 6 7 7 7 7 8 8 9 9 10 10 8 8 9 10 11 10 11 18 17 11 13 16 6 8 8 9 8 8 12 8 8 8 8 8 8 8 8
3 2 4 6 6 5 7 6 7 6 7 7 7 7 9 7 7 9 8 9 9 8 11 12 14 11 9 11 14 6 7 8 8 8 8 8 8 8 8 12 10 8 8 8
6 6 6 6 7 7 7 7 6 6 7 6 6 7 8 9 7 8 8 7 11 10 13 18 9 6 6 8 7 6 7 7 7 7 8 8 9 8 8 9 8 8 7 7
4 5 7 7 6 7 7 6 6 6 6 6 5 7 8 8 7 7 7 8 7 17 11 5 5 10 8 11 5 6 6 7 6 6 7 7 7 8 8 8 8 8 7 8
5 5 6 6 7 7 6 6 6 5 5 6 7 7 7 6 5 6 8 7 7 13 3 5 10 13 11 5 5 6 7 7 6 6 6 6 7 7 8 8 8 8 8 8
4 5 5 6 6 5 6 5 5 5 6 7 7 6 6 6 5 5 6 12 16 9 6 7 8 11 10 4 5 5 6 6 5 6 6 11 6 7 7 8 8 9 8 10
5 5 5 6 5 4 5 4 4 5 6 5 5 5 6 5 5 7 6 6 8 5 4 8 10 10 5 5 6 6 6 5 5 5 6 6 7 7 8 8 8 9 8 8
4 4 4 5 4 3 3 4 4 3 4 4 5 5 5 6 6 6 5 4 3 5 4 4 3 5 5 5 5 5 5 5 6 6 8 7 7 8 8 8 8 8 8 8
4 8 4 3 3 4 4 5 5 5 5 5 7 6 5 5 5 5 3 2 3 3 4 4 4 6 4 4 5 5 5 6 10 7 6 7 7 7 8 8 8 7 7 8
Wind_Direction
217 241 194 198 170 177 191 199 186 214 207 199 186 162 140 127 130 87 53 59 52 14 352 342 336 330 328 323 323 318 314 298 291 291 294 294 283 284 272 270 276 272 259 255
310 212 223 243 238 233 216 234 256 248 244 110 107 102 109 105 63 40 45 23 354 331 316 303 296 294 295 295 294 295 295 293 291 297 298 298 295 292 283 275 267 263 261 254
243 54 210 317 216 217 215 183 180 204 202 154 133 135 136 148 145 150 310 302 292 289 288 292 292 287 287 282 283 279 276 279 280 285 286 288 291 288 288 278 276 260 263 268
171 25 292 307 61 217 131 48 79 93 113 123 135 144 145 144 158 208 240 253 266 263 262 261 255 261 264 266 266 268 275 277 282 288 287 291 289 285 280 279 268 269 266 260
148 201 315 222 192 150 164 184 228 124 119 116 101 57 13 185 171 268 260 257 248 249 252 254 262 267 271 282 281 284 280 280 279 278 286 291 289 284 278 282 276 256 254 258
147 177 218 212 168 127 110 249 183 135 134 132 116 118 247 253 289 281 272 260 268 272 275 276 273 271 268 272 272 275 280 283 285 285 284 287 284 280 280 279 273 268 266 262
204 228 284 195 158 137 122 216 139 127 142 150 163 196 230 280 277 270 264 281 284 288 281 279 278 281 282 284 281 279 284 281 277 278 281 280 282 278 282 277 273 263 263 268
173 207 258 148 82 167 144 94 129 134 150 152 194 252 264 277 276 278 280 284 279 279 277 279 279 274 273 274 273 278 275 273 275 277 278 281 282 278 280 277 267 266 266 270
185 218 70 39 121 113 122 128 146 136 160 179 243 264 277 273 273 272 272 276 270 258 279 284 277 256 265 273 286 284 276 281 285 286 285 289 282 279 281 268 265 262 265 271
137 68 122 117 86 109 121 129 146 155 176 196 233 260 263 269 269 278 280 274 269 273 285 286 287 282 265 288 290 291 293 293 296 296 294 291 288 284 280 276 268 266 267 270
80 73 80 61 124 142 123 123 131 132 200 244 262 277 268 284 279 281 285 289 287 285 284 285 288 290 294 296 301 301 298 300 298 293 291 291 285 283 281 277 271 273 269 268
197 167 141 170 159 143 135 151 155 181 264 262 250 273 282 294 291 288 289 286 287 290 278 290 297 301 306 304 300 297 298 300 295 296 293 291 290 288 279 281 284 283 283 282
150 122 107 132 147 149 149 176 196 236 263 282 266 265 273 286 289 298 301 296 296 297 297 302 305 305 302 299 297 295 295 297 295 295 290 289 287 288 290 285 282 283 283 283
116 107 87 153 164 174 164 198 294 272 273 275 282 279 279 284 296 297 293 296 298 299 303 303 302 299 298 300 299 296 293 294 294 290 287 284 282 280 279 281 284 282 277 276
139 80 133 124 107 38 19 343 326 310 300 301 287 282 287 286 290 290 296 296 296 297 295 294 299 298 302 303 299 295 294 294 291 284 281 278 278 277 274 274 273 276 282 280
120 106 113 122 199 264 280 287 275 282 282 277 274 278 277 278 282 291 294 294 296 296 297 297 296 300 304 300 297 297 295 292 295 291 284 278 275 273 271 270 272 271 272 273
107 118 151 252 257 278 260 257 249 258 272 279 281 292 297 292 291 293 288 287 285 289 293 297 296 300 301 301 298 301 299 293 294 302 315 326 332 336 338 338 334 332 329 329
145 158 196 224 283 291 288 258 263 270 273 277 292 293 289 290 289 293 294 293 294 295 293 293 296 304 310 306 306 302 309 334 322 318 321 324 321 332 324 321 318 316 314 314
171 207 296 304 284 286 286 284 278 270 279 279 283 283 282 283 284 289 298 302 302 300 302 307 307 312 303 309 317 343 324 326 321 321 321 323 327 319 319 314 311 310 310 308
265 298 312 295 290 271 285 279 278 273 269 274 277 283 285 285 285 294 296 292 288 285 301 304 309 308 304 306 343 328 320 324 324 327 332 338 327 329 324 329 328 321 318 317
287 289 293 297 295 291 277 275 275 279 278 278 282 290 294 293 291 291 298 304 303 306 313 313 314 314 304 348 351 325 325 326 332 333 332 334 332 332 333 332 332 333 334 338
286 292 287 286 283 281 280 282 283 287 294 291 284 284 293 296 295 292 291 280 302 312 309 325 311 335 358 1 332 332 332 335 338 337 338 341 338 339 340 339 352 351 359 0
282 278 281 282 286 287 295 292 295 300 293 297 297 297 296 292 298 304 307 312 309 308 351 321 344 5 14 356 342 341 340 338 349 345 340 343 340 342 345 349 5 3 12 15
300 300 289 294 302 306 302 302 304 295 285 292 293 289 295 307 302 281 286 300 311 343 356 338 14 23 27 355 351 349 345 343 355 350 348 3 350 350 358 357 14 12 18 24
314 299 304 317 308 291 300 299 300 290 296 290 290 296 291 291 281 294 291 296 334 5 357 354 27 35 17 12 359 357 353 354 11 5 358 360 359 3 9 14 26 27 17 19
326 312 298 299 295 299 296 304 287 284 296 307 298 300 297 291 289 300 297 8 20 26 14 349 45 37 21 15 9 0 354 9 19 10 13 7 7 11 11 10 13 13 17 16
329 333 300 305 309 323 304 308 326 304 310 306 299 293 291 299 305 327 58 31 36 33 28 17 34 51 44 34 10 6 2 6 24 22 7 9 12 14 18 19 17 14 18 24